Location: ???????
(55.4362°N, 38.1183°E)
Time: 11:46:50
(UTC+00:00)

USA 267 - Pass Details

Date: 31 October 2021
Orbit: 1101 x 1107 km, 123.0° (Epoch: 25 November)

Event Time Altitude Azimuth Distance (km) Brightness Sun altitude
Exits shadow 16:21:01 13° 154° (SSE) 2,718 5.0 -21.6°
Maximum altitude 16:26:27 42° 220° (SW) 1,535 4.2 -22.4°
Drops below altitude 10° 16:32:36 10° 290° (WNW) 2,965 6.6 -23.3°
Sets 16:35:16 0° 298° (WNW) 3,925 7.4 -23.6°
